パンスターズ彗星

C/2021 Q6 ( PanSTARRS )

English version
Home page
Updated on September 11, 2021

---------------------------------------------------------------------

・ プロフィール

発見日 2021年8月22日
発見光度 22.2等
発見者 Pan-STARRS 1 telescope (Haleakala)

・ 軌道要素

Epoch 2024 Mar. 31.0 TT = JDT 2460400.5                                         
T 2024 Mar. 24.80955 TT                                 Rudenko                 
q   8.7102545            (2000.0)            P               Q                  
z  -0.0000528      Peri.  140.99295     +0.96883252     -0.10173225             
 +/-0.0000132      Node   133.53657     -0.21686736     -0.78897580             
e   1.0004601      Incl.  161.84654     +0.11971670     -0.60594368             
From 48 observations 2021 Jan. 2-Sept. 7, mean residual 0".2.                   

・ 光度変化

        m1 = 5.5 + 5 logΔ + 10.0 log r

---------------------------------------------------------------------

軌道要素はM.P.E.C. 2021-R167に掲載されたものです。
光度グラフはComet for Windowsで作成したものです。

---------------------------------------------------------------------

Copyright(C) Seiichi Yoshida (comet@aerith.net). All rights reserved.